STARLINK-36045 (66811 NORAD) Tracking and Keplerian Element Data

This shows tracking and keplerian element data for the satellite.

Feedback or suggestion? Click here.




ElementValue
Catalog66811
NameSTARLINK-36045
Epoch Orbit416
Epoch Day354.25003472
Epoch Year2025
RAAN206.3855
Inclination42.9993
Eccentricity0.0001418
Argument of Perigee253.6394
Mean Anonmoly5.391
Mean Motion15.63547074
Decay Rate-0.01990115
L11 66811U 25278W 25354.25003472 -.01990115 00000+0 -23725-1 0 9995
L22 66811 42.9993 206.3855 0001418 253.6394 5.3910 15.63547074 4166



Live tracking and technical data element details for STARLINK-36045 (NORAD 66811). STARLINK-36045 can be tracked NOW for your location showing map with azimuth and elevation plus other details from your city location.







IsCatalogInMostPopularTable: catalog: 66811, numindb: 9
Update: records affected: 1



GetName: 66811 STARLINK-36045

Hit Count: updated at: Tue, 10 Feb 2026 02:25:36 GMT